When you browse on this site, cookies collect data to enhance your experience and personalize the content and advertising you see.
Visit our Privacy Policy to learn more. By continuing to use the site, you agree to this use of cookies and data.
  • In Lithuania
  • List of Countries
  • For 7 days
  • Water Temperature
  • Satellite Maps
  • Weather Map
  • Weather Widgets
  • user-avatar
    Login

    Hourly Weather Kalgoorlie

    Today, 18 July, Thursday

    Time Temperature Precipitation Wind Pressure Humidity
    00:00 +12°C° 0 mm 3 mps 733 mmHg 36%
    01:00 +12°C° 0 mm 2 mps 733 mmHg 38%
    02:00 +12°C° 0 mm 2 mps 732 mmHg 40%
    03:00 +10°C° 0 mm 2 mps 732 mmHg 42%
    04:00 +10°C° 0 mm 2 mps 732 mmHg 45%
    05:00 +9°C° 0 mm 2 mps 732 mmHg 47%
    06:00 +10°C° 0 mm 2 mps 732 mmHg 48%
    07:00 +12°C° 0 mm 1 mps 733 mmHg 49%
    08:00 +12°C° 0 mm 1 mps 733 mmHg 50%
    09:00 +14°C° 0 mm 1 mps 733 mmHg 44%
    10:00 +16°C° 0 mm 1 mps 733 mmHg 39%
    11:00 +18°C° 0 mm 1 mps 733 mmHg 34%
    12:00 +19°C° 0 mm 1 mps 732 mmHg 32%
    13:00 +20°C° 0 mm 1 mps 732 mmHg 30%
    14:00 +20°C° 0 mm 2 mps 731 mmHg 28%
    15:00 +20°C° 0 mm 1 mps 731 mmHg 32%
    16:00 +19°C° 0 mm 1 mps 730 mmHg 36%
    17:00 +18°C° 0 mm 1 mps 730 mmHg 40%
    18:00 +16°C° 0 mm 1 mps 730 mmHg 38%
    19:00 +15°C° 0 mm 1 mps 731 mmHg 37%
    20:00 +15°C° 0 mm 2 mps 731 mmHg 36%
    21:00 +15°C° 0 mm 2 mps 731 mmHg 35%
    22:00 +13°C° 0 mm 3 mps 731 mmHg 35%
    23:00 +13°C° 0 mm 3 mps 730 mmHg 34%

    Tomorrow, 19 July, Friday

    Time Temperature Precipitation Wind Pressure Humidity
    00:00 +13°C° 0 mm 3 mps 730 mmHg 34%
    01:00 +12°C° 0 mm 3 mps 729 mmHg 34%
    02:00 +12°C° 0 mm 3 mps 729 mmHg 34%
    03:00 +11°C° 0 mm 4 mps 729 mmHg 34%
    04:00 +11°C° 0 mm 4 mps 728 mmHg 35%
    05:00 +11°C° 0 mm 4 mps 728 mmHg 35%
    06:00 +11°C° 0 mm 4 mps 728 mmHg 35%
    07:00 +10°C° 0 mm 5 mps 728 mmHg 35%
    08:00 +10°C° 0 mm 5 mps 728 mmHg 35%
    09:00 +14°C° 0 mm 6 mps 728 mmHg 30%
    10:00 +17°C° 0 mm 8 mps 727 mmHg 26%
    11:00 +19°C° 0 mm 9 mps 727 mmHg 21%
    12:00 +21°C° 0 mm 10 mps 726 mmHg 19%
    13:00 +22°C° 0 mm 10 mps 725 mmHg 18%
    14:00 +23°C° 0 mm 11 mps 725 mmHg 17%
    15:00 +22°C° 0 mm 10 mps 724 mmHg 19%
    16:00 +21°C° 0 mm 8 mps 724 mmHg 21%
    17:00 +20°C° 0 mm 7 mps 724 mmHg 23%
    18:00 +18°C° 0 mm 7 mps 724 mmHg 25%
    19:00 +16°C° 0 mm 7 mps 723 mmHg 27%
    20:00 +15°C° 0 mm 7 mps 723 mmHg 29%
    21:00 +15°C° 0 mm 8 mps 723 mmHg 35%
    22:00 +13°C° 0 mm 9 mps 723 mmHg 42%
    23:00 +13°C° 0 mm 9 mps 723 mmHg 49%

    Day after tomorrow, 20 July, Saturday

    Time Temperature Precipitation Wind Pressure Humidity
    00:00 +12°C° 0.2 mm 10 mps 724 mmHg 54%
    01:00 +12°C° 0.2 mm 11 mps 724 mmHg 59%
    02:00 +11°C° 0.2 mm 11 mps 725 mmHg 65%
    03:00 +9°C° 0.1 mm 10 mps 725 mmHg 67%
    04:00 +8°C° 0.1 mm 9 mps 726 mmHg 70%
    05:00 +7°C° 0.1 mm 8 mps 726 mmHg 72%
    06:00 +7°C° 0 mm 8 mps 727 mmHg 71%
    07:00 +7°C° 0 mm 8 mps 728 mmHg 71%
    08:00 +7°C° 0 mm 9 mps 729 mmHg 70%
    09:00 +8°C° 0 mm 9 mps 729 mmHg 63%
    10:00 +10°C° 0 mm 9 mps 730 mmHg 56%
    11:00 +11°C° 0 mm 8 mps 730 mmHg 49%
    12:00 +12°C° 0 mm 8 mps 730 mmHg 46%
    13:00 +12°C° 0 mm 8 mps 730 mmHg 42%
    14:00 +13°C° 0 mm 8 mps 730 mmHg 38%
    15:00 +12°C° 0 mm 7 mps 730 mmHg 40%
    16:00 +12°C° 0 mm 7 mps 730 mmHg 42%
    17:00 +11°C° 0 mm 6 mps 731 mmHg 44%
    18:00 +10°C° 0 mm 5 mps 731 mmHg 48%
    19:00 +9°C° 0 mm 5 mps 732 mmHg 52%
    20:00 +8°C° 0 mm 4 mps 732 mmHg 57%
    21:00 +8°C° 0 mm 4 mps 732 mmHg 60%
    22:00 +8°C° 0 mm 3 mps 732 mmHg 63%
    23:00 +8°C° 0 mm 3 mps 732 mmHg 66%

    21 July, Sunday

    Time Temperature Precipitation Wind Pressure Humidity
    00:00 +7°C° 0 mm 3 mps 732 mmHg 67%
    01:00 +7°C° 0 mm 3 mps 732 mmHg 69%
    02:00 +7°C° 0 mm 3 mps 732 mmHg 70%
    03:00 +6°C° 0 mm 4 mps 732 mmHg 73%
    04:00 +5°C° 0 mm 4 mps 732 mmHg 75%
    05:00 +5°C° 0 mm 4 mps 732 mmHg 77%
    06:00 +5°C° 0 mm 4 mps 732 mmHg 77%
    07:00 +6°C° 0 mm 5 mps 732 mmHg 77%
    08:00 +6°C° 0 mm 5 mps 732 mmHg 76%
    09:00 +8°C° 0 mm 6 mps 732 mmHg 69%
    10:00 +10°C° 0 mm 6 mps 732 mmHg 61%
    11:00 +14°C° 0 mm 7 mps 732 mmHg 53%
    12:00 +14°C° 0 mm 7 mps 731 mmHg 52%
    13:00 +15°C° 0 mm 8 mps 730 mmHg 51%
    14:00 +15°C° 0 mm 8 mps 730 mmHg 50%
    15:00 +15°C° 0 mm 7 mps 730 mmHg 52%
    16:00 +15°C° 0 mm 7 mps 730 mmHg 53%
    17:00 +14°C° 0 mm 7 mps 730 mmHg 54%
    18:00 +14°C° 0 mm 7 mps 730 mmHg 57%
    19:00 +14°C° 0 mm 7 mps 730 mmHg 61%
    20:00 +12°C° 0 mm 7 mps 730 mmHg 64%
    21:00 +11°C° 0 mm 6 mps 730 mmHg 70%
    22:00 +11°C° 0 mm 6 mps 730 mmHg 76%
    23:00 +10°C° 0 mm 6 mps 730 mmHg 82%

    22 July, Monday

    Time Temperature Precipitation Wind Pressure Humidity
    00:00 +9°C° 0 mm 6 mps 730 mmHg 84%
    01:00 +9°C° 0 mm 6 mps 729 mmHg 87%
    02:00 +9°C° 0 mm 5 mps 729 mmHg 90%
    03:00 +9°C° 0 mm 6 mps 729 mmHg 89%
    04:00 +9°C° 0 mm 6 mps 730 mmHg 87%
    05:00 +9°C° 0 mm 6 mps 730 mmHg 85%
    06:00 +9°C° 0 mm 6 mps 730 mmHg 83%
    07:00 +9°C° 0 mm 6 mps 731 mmHg 80%
    08:00 +9°C° 0 mm 6 mps 731 mmHg 78%
    09:00 +10°C° 0 mm 7 mps 732 mmHg 71%
    10:00 +11°C° 0 mm 7 mps 732 mmHg 64%
    11:00 +12°C° 0 mm 7 mps 732 mmHg 56%
    12:00 +14°C° 0 mm 7 mps 732 mmHg 52%
    13:00 +15°C° 0 mm 7 mps 731 mmHg 47%
    14:00 +15°C° 0 mm 7 mps 731 mmHg 42%
    15:00 +15°C° 0 mm 6 mps 731 mmHg 43%
    16:00 +14°C° 0 mm 5 mps 732 mmHg 44%
    17:00 +13°C° 0 mm 4 mps 732 mmHg 44%
    18:00 +12°C° 0 mm 4 mps 732 mmHg 48%
    19:00 +11°C° 0 mm 4 mps 733 mmHg 52%
    20:00 +10°C° 0 mm 4 mps 733 mmHg 56%
    21:00 +8°C° 0 mm 4 mps 734 mmHg 59%
    22:00 +8°C° 0 mm 4 mps 734 mmHg 62%
    23:00 +7°C° 0 mm 4 mps 735 mmHg 65%

    23 July, Tuesday

    Time Temperature Precipitation Wind Pressure Humidity
    00:00 +7°C° 0 mm 4 mps 735 mmHg 66%
    01:00 +7°C° 0 mm 3 mps 735 mmHg 68%
    02:00 +7°C° 0 mm 3 mps 735 mmHg 70%
    03:00 +5°C° 0 mm 3 mps 735 mmHg 72%
    04:00 +6°C° 0 mm 2 mps 735 mmHg 73%
    05:00 +6°C° 0 mm 2 mps 736 mmHg 75%
    06:00 +6°C° 0 mm 2 mps 736 mmHg 73%
    07:00 +7°C° 0 mm 1 mps 737 mmHg 72%
    08:00 +8°C° 0 mm 1 mps 737 mmHg 70%
    09:00 +9°C° 0 mm 1 mps 737 mmHg 64%
    10:00 +11°C° 0 mm 1 mps 737 mmHg 58%
    11:00 +11°C° 0 mm 0 mps 737 mmHg 52%
    12:00 +12°C° 0 mm 0 mps 737 mmHg 49%
    13:00 +13°C° 0 mm 0 mps 736 mmHg 45%
    14:00 +13°C° 0 mm 0 mps 736 mmHg 42%
    15:00 +14°C° 0 mm 1 mps 736 mmHg 43%
    16:00 +14°C° 0 mm 1 mps 736 mmHg 45%
    17:00 +14°C° 0 mm 1 mps 737 mmHg 47%
    18:00 +13°C° 0 mm 1 mps 737 mmHg 49%
    19:00 +12°C° 0 mm 1 mps 737 mmHg 51%
    20:00 +11°C° 0 mm 1 mps 738 mmHg 53%
    21:00 +11°C° 0 mm 1 mps 738 mmHg 55%
    22:00 +10°C° 0 mm 1 mps 738 mmHg 58%
    23:00 +9°C° 0 mm 0 mps 738 mmHg 60%
    Show more